Regional Weather Roundup
Issued by NWS

Home | Current Version | Previous Version | Graphics & Text | Print | Product List | Glossary On
Versions: 1 2 3 4 5 6 7 8 9 10 11 12 13 14 15 16 17 18 19 20 21 22 23 24 25 26 27 28 29 30 31 32 33 34 35 36 37 38 39 40 41 42 43 44 45 46 47 48 49 50
000
ASUS43 KLSX 111757
RWRMO

WEATHER SUMMARY FOR MISSOURI
NATIONAL WEATHER SERVICE SPRINGFIELD MO
1200 PM CST THU FEB 11 2016

NOTE: "FAIR" INDICATES FEW OR NO CLOUDS BELOW 12,000 FEET WITH NO
       SIGNIFICANT WEATHER AND/OR OBSTRUCTIONS TO VISIBILITY.
       CURRENT SKY AND/OR WEATHER CONDITIONS ARE NOT AVAILABLE FOR
       CHILLICOTHE AND FARMINGTON.

MOZ001>031-035>038-043-044-053-054-111900-
...NORTHERN AND WESTERN MISSOURI...

CITY           SKY/WX    TMP DP  RH WIND       PRES   REMARKS
KANSAS CTY INT PTSUNNY   30  20  66 E8        30.28F WCI  22
6HR MIN TEMP:  18; 6HR MAX TEMP:  31;

ST JOSEPH      SUNNY     30  17  58 SE7       30.31F WCI  23
6HR MIN TEMP:  20; 6HR MAX TEMP:  30;

CHILLICOTHE      N/A     28  11  48 E7        30.34S WCI  21
6HR MIN TEMP:  20; 6HR MAX TEMP:  29;


$$
MOZ066>068-077>081-088>096-101>105-111900-
...SOUTHWEST MISSOURI...

CITY           SKY/WX    TMP DP  RH WIND       PRES   REMARKS
SPRINGFIELD    SUNNY     41  16  36 NE7       30.21S
6HR MIN TEMP:  24; 6HR MAX TEMP:  41;

JOPLIN         SUNNY     41  21  44 NE12G18   30.23F
6HR MIN TEMP:  25; 6HR MAX TEMP:  41;


$$
MOZ032>034-039>042-045>050-055>058-069>072-111900-
...CENTRAL MISSOURI...

CITY           SKY/WX    TMP DP  RH WIND       PRES   REMARKS
COLUMBIA       NOT AVBL
JEFFERSON CITY SUNNY     31  18  58 E6        30.30F WCI  25
6HR MIN TEMP:  23; 6HR MAX TEMP:  31;

SEDALIA        SUNNY     34  18  52 E9        30.29F WCI  27
6HR MIN TEMP:  21; 6HR MAX TEMP:  34;


$$
MOZ051-052-059>065-111900-
...EAST CENTRAL MISSOURI...

CITY           SKY/WX    TMP DP  RH WIND       PRES   REMARKS
ST LOUIS INTL  MOSUNNY   26  12  55 CALM      30.34F
6HR MIN TEMP:  23; 6HR MAX TEMP:  27;


$$
MOZ072>076-082>087-097>100-106>115-111900-
...SOUTH CENTRAL AND SOUTHEAST MISSOURI...

CITY           SKY/WX    TMP DP  RH WIND       PRES   REMARKS
CAPE GIRARDEAU SUNNY     34  22  61 NE13G21   30.30F WCI  25
6HR MIN TEMP:  25; 6HR MAX TEMP:  34;

POPLAR BLUFF   SUNNY     37  22  54 NE12      30.27F WCI  29
6HR MIN TEMP:  24; 6HR MAX TEMP:  37;

WEST PLAINS    SUNNY     40  16  37 VRB5      30.22F
6HR MIN TEMP:  20; 6HR MAX TEMP:  40;


$$


USA.gov is the U.S. government's official web portal to all federal, state and local government web resources and services.